Home > Weather > Ancona > Past weeks

Flag for Italy Past Weather in Ancona, Italy — Yesterday and Last 2 Weeks

Now
75 °F

Passing clouds.


Feels Like: 77 °F
Forecast: 66 / 78 °F
Wind: 3 mph from Southwest

Location: Falconara

Current Time: Aug 30, 2016 at 9:28:26 AM

Latest Report: Aug 30, 2016 at 8:50 AM


Visibility: N/A

Pressure: 30.04 "Hg

Humidity: 65%

Dew Point: 63 °F

Location of AnconaLocation

Past Weather in Ancona — Graph

°F

Ancona Temperature Yesterday

Maximum temperature yesterday: 88 °F (at 5:50 PM)
Minimum temperature yesterday: 63 °F (at 5:50 AM)
Average temperature yesterday: 75 °F

High & Low Weather Summary for the Past Weeks

 TemperatureHumidityPressure
High88 °F (Aug 29, 5:50 PM)100% (Aug 18, 5:50 AM)30.21 "Hg (Aug 18, 5:50 AM)
Low61 °F (Aug 22, 11:50 PM)33% (Aug 15, 6:50 PM)29.80 "Hg (Aug 17, 4:50 PM)
Average75 °F66%30.01 "Hg
* Reported Aug 15 7:50 AM — Aug 30 7:50 AM, Ancona, Weather by CustomWeather, © 2016

Note: Actual official high and low records may vary slightly from our data, if they occured in-between our weather recording intervals... More about our weather records

Advertising

Ancona Weather History for the Previous 24 Hours

Scroll right to see more
 ConditionsComfort  
Time TempWeatherWind HumidityBarometerVisibility
7:50 AM
Tue, Aug 30
70 °FPassing clouds.3 mph78%30.04 "HgN/A
6:50 AM66 °FClear.2 mph83%30.01 "Hg10 mi
5:50 AM66 °FPassing clouds.3 mph83%29.98 "HgN/A
3:50 AM66 °FClear.2 mph83%29.98 "Hg10 mi
2:50 AM70 °FClear.2 mph73%29.98 "Hg10 mi
1:50 AM70 °FClear.2 mph73%29.98 "Hg10 mi
12:50 AM72 °FClear.2 mph69%29.98 "Hg10 mi
11:50 PM
Mon, Aug 29
70 °FClear.2 mph73%29.98 "Hg10 mi
10:50 PM73 °FClear.1 mph65%29.98 "Hg10 mi
9:50 PM73 °FClear.1 mph65%29.98 "Hg10 mi
8:50 PM81 °FPassing clouds.5 mph48%29.95 "HgN/A
7:50 PM82 °FPassing clouds.5 mph48%29.92 "HgN/A
6:50 PM84 °FPassing clouds.7 mph48%29.92 "HgN/A
5:50 PM88 °FPassing clouds.6 mph35%29.92 "HgN/A
4:50 PM84 °FPassing clouds.8 mph43%29.95 "HgN/A
3:50 PM84 °FPassing clouds.10 mph40%29.95 "HgN/A
2:50 PM84 °FSunny.9 mph45%29.98 "Hg10 mi
1:50 PM82 °FPassing clouds.8 mph51%29.98 "HgN/A
12:50 PM81 °FPassing clouds.9 mph58%30.01 "HgN/A
11:50 AM82 °FPassing clouds.9 mph45%30.01 "HgN/A
10:50 AM82 °FSunny.7 mph45%30.01 "Hg10 mi
9:50 AM81 °FPassing clouds.3 mph48%30.01 "HgN/A
Weather by CustomWeather, © 2016

See weather overviewHow to use our weather pages